Home > Weather > Würselen > Past weeks

Flag for Germany Weather for the Past 2 Weeks in Würselen, North Rhine-Westphalia, Germany

Now
43 °F

Passing clouds.


Feels Like: 40 °F
Forecast: 39 / 54 °F
Wind: 5 mph from Southeast

Location: Maastricht Airport Zuid Limburg

Current Time: Apr 30, 2016 at 10:15:35 AM

Latest Report: Apr 30, 2016 at 9:25 AM


Visibility: N/A

Pressure: 30.07 "Hg

Humidity: 87%

Dew Point: 39 °F

Location of WürselenLocation

Historic Weather in Würselen — Graph

°F

Würselen Temperature Yesterday

Maximum temperature yesterday: 52 °F (at 11:55 AM)
Minimum temperature yesterday: 39 °F (at 12:25 AM)
Average temperature yesterday: 45 °F

High & Low Weather Summary for the Past Weeks

 TemperatureHumidityPressure
High66 °F (Apr 21, 3:25 PM)100% (Apr 17, 4:55 AM)30.45 "Hg (Apr 17, 4:55 AM)
Low32 °F (Apr 18, 6:25 AM)32% (Apr 21, 3:25 PM)29.50 "Hg (Apr 16, 2:25 AM)
Average45 °F75%29.95 "Hg
* Reported Apr 15 8:55 AM — Apr 30 8:55 AM, Würselen, Weather by CustomWeather, © 2016

Note: Actual official high and low records may vary slightly from our data, if they occured in-between our weather recording intervals... More about our weather records

Advertising

Würselen Weather History for the Previous 24 Hours

Scroll right to see more
 ConditionsComfort  
Time TempWeatherWind HumidityBarometerVisibility
8:55 AM
Sat, Apr 30
43 °FBroken clouds.6 mph87%30.04 "HgN/A
8:25 AM43 °FPassing clouds.5 mph93%30.04 "HgN/A
7:55 AM43 °FPassing clouds.3 mph93%30.04 "HgN/A
7:25 AM41 °FDrizzle. Partly sunny.2 mph100%30.04 "HgN/A
6:55 AM41 °FPassing clouds.1 mph100%30.01 "HgN/A
6:25 AM41 °FDrizzle. Mostly cloudy.2 mph93%30.01 "HgN/A
5:55 AM41 °FDrizzle. Mostly cloudy.2 mph100%30.01 "HgN/A
4:55 AM41 °FDrizzle. Mostly cloudy.2 mph93%30.01 "HgN/A
4:25 AM41 °FLight rain. Partly cloudy.1 mph100%30.01 "HgN/A
3:55 AM43 °FLight rain. Overcast.3 mph93%30.01 "HgN/A
3:25 AM43 °FLight rain. Partly cloudy.5 mph93%29.98 "HgN/A
2:55 AM43 °FLight rain. Overcast.3 mph100%29.98 "Hg6 mi
2:25 AM43 °FDrizzle. Mostly cloudy.6 mph100%29.98 "HgN/A
1:55 AM43 °FLight rain. Overcast.6 mph100%29.98 "HgN/A
1:25 AM43 °FRain showers. Partly cloudy.3 mph100%29.98 "Hg6 mi
12:55 AM43 °FRain showers. Overcast.7 mph100%29.98 "HgN/A
12:25 AM45 °FLight rain. Mostly cloudy.8 mph93%29.98 "HgN/A
11:55 PM
Fri, Apr 29
45 °FDrizzle. Mostly cloudy.9 mph87%29.98 "HgN/A
11:25 PM45 °FPassing clouds.8 mph87%29.98 "HgN/A
10:55 PM45 °FClear.10 mph87%29.98 "HgN/A
10:25 PM45 °FClear.10 mph87%29.98 "HgN/A
9:55 PM45 °FClear.9 mph87%29.98 "HgN/A
9:25 PM45 °FClear.9 mph87%29.98 "HgN/A
8:55 PM45 °FClear.12 mph93%29.95 "HgN/A
8:25 PM45 °FClear.10 mph93%29.95 "HgN/A
7:55 PM45 °FScattered clouds.9 mph93%29.95 "HgN/A
7:25 PM45 °FPassing clouds.8 mph93%29.98 "HgN/A
6:55 PM45 °FBroken clouds.9 mph100%29.98 "HgN/A
6:25 PM45 °FRain showers. More clouds than sun.6 mph93%29.98 "HgN/A
5:55 PM45 °FRain showers. Mostly cloudy.7 mph93%29.98 "Hg6 mi
5:25 PM45 °FDrizzle. Broken clouds.7 mph93%29.98 "HgN/A
4:55 PM45 °FLight rain. Broken clouds.7 mph93%29.95 "HgN/A
4:25 PM45 °FSprinkles. Broken clouds.6 mph93%29.95 "HgN/A
3:55 PM46 °FLight rain. Broken clouds.6 mph82%29.95 "HgN/A
3:25 PM46 °FBroken clouds.6 mph87%29.95 "HgN/A
2:55 PM46 °FOvercast.5 mph82%29.95 "HgN/A
2:25 PM48 °FScattered clouds.7 mph76%29.95 "HgN/A
1:55 PM46 °FDrizzle. Broken clouds.8 mph82%29.92 "HgN/A
1:25 PM52 °FBroken clouds.13 mph58%29.92 "HgN/A
12:55 PM52 °FPartly sunny.17 mph58%29.92 "HgN/A
12:25 PM52 °FPassing clouds.25 mph58%29.92 "HgN/A
11:55 AM52 °FClear.23 mph58%29.92 "HgN/A
11:25 AM50 °FScattered clouds.22 mph62%29.92 "HgN/A
10:55 AM50 °FClear.21 mph62%29.92 "HgN/A
10:25 AM48 °FPartly sunny.18 mph66%29.92 "HgN/A
Weather by CustomWeather, © 2016

See weather overviewHow to use our weather pages